星链-33991 (STARLINK-33991)

导读 | 豆包AI

STARLINK-33991是美国SpaceX公司星链(Starlink)星座的一员,于2025年5月23日发射升空,部署于近地轨道。作为全球低轨卫星互联网项目的组成部分,该卫星依托星链星座组网,可为全球尤其是偏远地区提供高速宽带互联网服务,支持手机直连等业务,助力实现全域网络覆盖,推动卫星互联网技术的商业化应用与发展。

Basic Information
目录编号:
64122
目录名称:
STARLINK-33991
国际标识:
2025-110AC
轨道中心:
EARTH
卫星名称:
星链-33991
卫星全名:
星链-33991 (STARLINK-33991)
卫星状态:
在轨 (已飞行341 天)
发射日期:
2025-05-23 UTC
国别 :
美国 (US)
星等 :
--
Orbit Information
数据来源 国际轨道数据 AOE轨道数据
星历时间 2026-04-29T19:33:45+0800
8小时前
查看轨道信息
2026-04-25T09:00:00+0800
4天前
查看轨道信息
半长轴 6853.32km 6853.38km
偏心率 0.0000592 0.0000978
轨道倾角 53.160° 53.157°
近地点辐角 105.291° 77.560°
升交点赤经 150.501° 171.127°
平近点角 254.816° 289.684°
近地点 474.777km 474.572km
远地点 475.589km 475.914km
周期 94.105分钟 94.106分钟
每日圈数 15.302108 15.301907
Detailed Information
固有亮度:
5
最大亮度:
2.5
卫星平台:
Starlink V1.0
覆盖范围:
全球
运营商:
太空探索技术公司
运营商所在国:
美国
制造商(研发单位):
太空探索技术公司
制造商所在国:
美国
使用方式:
暂无
Satellite Introduction
Starlink 计划是 SpaceX 推出的全球卫星互联网项目,通过发射低轨道卫星,为全球尤其是偏远地区提供高速、低延迟的互联网服务。自 2019 年起,Starlink 已部署数千颗卫星,旨在缩小全球数字鸿沟,推动互联网普及。该项目还为军事、航空等行业提供通信支持,带来广泛经济效益。
2D Orbit Map
3D Orbit Map
Orbit Altitude Analysis Chart
Orbit Inclination Analysis Chart
Orbit Comprehensive Analysis Chart
View Comprehensive Chart